Total_Precipitation_Accumulation
1.21 1.42 1.62 1.79 1.97 2.09 2.19 2.23 2.24 2.30 2.39 2.45 2.41 2.44 2.53 2.57 2.52 2.53 2.52 2.42 2.30 2.16 2.06 1.98 1.91 1.83 1.86 1.83 1.87 1.95 1.99 2.07 2.05 1.58 1.34 1.33 1.45 1.47 1.52 1.43 1.38 1.35 1.29
1.10 1.22 1.45 1.56 1.71 1.88 1.99 2.03 2.03 2.07 2.12 2.18 2.23 2.28 2.30 2.34 2.38 2.39 2.38 2.36 2.32 2.20 2.10 2.06 1.97 1.93 2.01 2.01 2.03 2.02 1.98 1.94 1.95 1.74 1.44 1.35 1.35 1.30 1.28 1.32 1.33 1.32 1.22
1.05 1.10 1.26 1.43 1.53 1.61 1.72 1.83 1.87 1.91 1.99 2.04 2.05 2.14 2.17 2.14 2.20 2.25 2.26 2.26 2.27 2.24 2.19 2.16 2.09 2.08 2.11 2.08 2.04 2.00 1.93 1.88 1.85 1.79 1.59 1.43 1.41 1.35 1.35 1.33 1.30 1.30 1.21
0.97 1.05 1.10 1.27 1.41 1.47 1.52 1.61 1.68 1.70 1.78 1.83 1.88 1.90 1.96 2.00 2.04 2.13 2.21 2.22 2.23 2.23 2.21 2.17 2.11 2.08 2.05 1.98 1.93 1.87 1.87 1.92 1.92 1.91 1.76 1.60 1.53 1.49 1.51 1.55 1.51 1.38 1.31
0.90 1.01 1.07 1.13 1.22 1.36 1.46 1.53 1.63 1.65 1.68 1.72 1.76 1.79 1.81 1.85 1.93 2.03 2.14 2.23 2.25 2.25 2.24 2.16 2.04 2.01 1.94 1.90 1.86 1.81 1.84 1.98 2.04 2.05 1.91 1.74 1.62 1.61 1.63 1.55 1.57 1.51 1.44
0.89 0.93 1.01 1.10 1.15 1.21 1.31 1.42 1.52 1.63 1.69 1.72 1.79 1.83 1.86 1.90 2.14 2.25 2.22 2.22 2.21 2.17 2.08 1.95 1.88 1.88 1.82 1.87 1.89 1.87 1.94 2.11 2.22 2.15 1.95 1.71 1.47 1.38 1.47 1.63 1.78 1.84 1.75
0.94 0.93 0.97 1.06 1.17 1.23 1.25 1.34 1.50 1.62 1.79 1.88 1.91 1.99 2.01 2.03 2.13 2.03 2.08 2.06 2.08 2.06 1.96 1.83 1.74 1.63 1.64 1.51 1.64 1.78 1.83 1.93 1.98 1.91 1.83 1.55 1.40 1.35 1.60 1.88 1.89 1.82 1.56
0.98 1.01 1.03 1.05 1.18 1.30 1.33 1.38 1.49 1.60 1.76 1.92 1.98 2.03 2.03 2.03 2.05 1.94 1.92 1.76 1.73 1.76 1.75 1.72 1.66 1.61 1.54 1.53 1.58 1.67 1.56 1.51 1.50 1.41 1.41 1.41 1.40 1.43 1.67 1.96 1.98 1.95 1.70
0.98 1.04 1.08 1.11 1.23 1.35 1.38 1.42 1.49 1.57 1.65 1.72 1.81 1.84 1.81 1.81 1.84 1.77 1.79 1.66 1.60 1.54 1.50 1.53 1.58 1.52 1.64 1.78 1.75 1.69 1.50 1.34 1.35 1.43 1.50 1.50 1.59 1.62 1.72 2.11 2.30 2.36 2.10
1.08 1.13 1.18 1.26 1.39 1.45 1.46 1.46 1.45 1.47 1.49 1.46 1.48 1.47 1.46 1.47 1.57 1.58 1.61 1.52 1.52 1.45 1.42 1.45 1.60 1.55 1.68 1.82 1.71 1.69 1.58 1.35 1.26 1.26 1.26 1.26 1.24 1.33 1.57 1.81 2.27 2.63 2.28
1.16 1.19 1.22 1.29 1.38 1.44 1.42 1.38 1.37 1.34 1.33 1.29 1.26 1.25 1.23 1.27 1.34 1.39 1.47 1.43 1.41 1.42 1.42 1.37 1.39 1.65 1.75 1.77 1.67 1.53 1.54 1.48 1.32 1.22 1.20 1.16 1.14 1.19 1.27 1.38 1.71 2.40 2.62
1.09 1.11 1.12 1.15 1.21 1.30 1.35 1.32 1.28 1.29 1.28 1.25 1.24 1.26 1.24 1.25 1.27 1.30 1.40 1.46 1.48 1.44 1.36 1.24 1.30 1.58 1.60 1.59 1.52 1.54 1.67 1.60 1.41 1.40 1.36 1.29 1.20 1.16 1.15 1.23 1.36 1.60 1.91
0.98 1.04 1.03 1.00 1.03 1.10 1.18 1.23 1.26 1.27 1.28 1.26 1.25 1.27 1.26 1.22 1.28 1.36 1.37 1.47 1.50 1.37 1.32 1.43 1.48 1.48 1.41 1.40 1.48 1.54 1.50 1.49 1.60 1.65 1.50 1.29 1.15 1.11 1.14 1.25 1.33 1.42 1.55
0.84 0.92 0.95 0.96 0.96 0.96 1.01 1.11 1.19 1.25 1.26 1.23 1.25 1.29 1.25 1.17 1.19 1.27 1.32 1.38 1.43 1.39 1.42 1.48 1.45 1.37 1.32 1.34 1.42 1.43 1.39 1.44 1.62 1.68 1.53 1.30 1.20 1.25 1.34 1.42 1.58 1.63 1.78
0.74 0.79 0.83 0.90 0.95 0.99 1.00 1.08 1.20 1.25 1.38 1.45 1.37 1.32 1.35 1.33 1.31 1.46 1.53 1.48 1.53 1.55 1.53 1.38 1.28 1.25 1.24 1.21 1.22 1.24 1.30 1.42 1.55 1.50 1.52 1.50 1.43 1.43 1.47 1.55 1.77 1.92 1.99
0.79 0.78 0.82 0.89 0.94 0.96 0.98 1.04 1.14 1.20 1.27 1.33 1.38 1.40 1.37 1.41 1.45 1.53 1.59 1.65 1.68 1.66 1.60 1.45 1.28 1.18 1.13 1.09 1.12 1.17 1.21 1.31 1.44 1.55 1.59 1.59 1.60 1.59 1.59 1.62 1.83 2.04 2.02
0.84 0.86 0.87 0.90 0.96 0.95 0.94 0.98 1.05 1.09 1.12 1.15 1.21 1.30 1.34 1.38 1.39 1.46 1.56 1.62 1.59 1.57 1.56 1.42 1.26 1.19 1.14 1.08 1.10 1.13 1.16 1.17 1.33 1.54 1.66 1.68 1.70 1.68 1.70 1.77 1.88 1.98 1.92
0.82 0.88 0.92 0.94 0.99 0.98 0.96 0.96 0.98 1.01 1.04 1.06 1.10 1.19 1.26 1.31 1.39 1.44 1.50 1.53 1.53 1.42 1.34 1.31 1.25 1.19 1.18 1.20 1.20 1.23 1.23 1.23 1.34 1.48 1.57 1.65 1.75 1.84 1.85 1.83 1.86 1.90 1.86
0.81 0.85 0.89 0.95 0.99 1.02 1.01 0.99 0.98 0.96 0.97 0.99 1.02 1.13 1.23 1.28 1.36 1.42 1.39 1.35 1.31 1.26 1.21 1.19 1.18 1.21 1.24 1.28 1.30 1.32 1.37 1.42 1.47 1.61 1.64 1.67 1.76 1.91 1.89 1.76 1.74 1.72 1.69
0.76 0.86 0.93 0.97 0.97 0.97 1.00 1.02 1.01 0.98 0.96 0.95 0.96 1.05 1.18 1.28 1.28 1.24 1.21 1.19 1.21 1.21 1.17 1.17 1.17 1.19 1.27 1.35 1.39 1.43 1.49 1.49 1.53 1.64 1.71 1.73 1.79 1.90 1.91 1.76 1.67 1.66 1.57
0.78 0.81 0.89 0.93 0.95 0.97 0.99 1.03 1.03 1.01 1.00 0.97 0.96 1.05 1.30 1.32 1.19 1.07 1.07 1.13 1.18 1.21 1.20 1.20 1.20 1.24 1.31 1.39 1.46 1.48 1.52 1.53 1.56 1.68 1.74 1.73 1.75 1.76 1.66 1.64 1.62 1.60 1.62
0.80 0.81 0.80 0.86 0.93 0.99 1.05 1.06 1.07 1.04 0.98 0.97 0.97 1.02 1.16 1.12 1.09 1.08 1.07 1.07 1.08 1.11 1.15 1.24 1.26 1.25 1.39 1.58 1.72 1.78 1.67 1.57 1.56 1.68 1.71 1.61 1.58 1.59 1.58 1.63 1.62 1.63 1.65
0.82 0.83 0.83 0.86 0.94 1.04 1.07 1.05 1.07 1.05 1.02 0.99 1.00 1.00 1.00 1.02 1.05 1.08 1.10 1.10 1.08 1.08 1.09 1.18 1.26 1.22 1.24 1.46 1.69 2.02 2.12 1.89 1.75 1.85 1.97 1.82 1.65 1.62 1.67 1.69 1.62 1.62 1.57
0.82 0.86 0.88 0.90 0.95 1.00 1.03 1.03 1.04 1.05 1.04 1.03 1.01 1.00 1.01 1.03 1.04 1.05 1.07 1.09 1.10 1.07 1.06 1.14 1.20 1.20 1.21 1.39 1.57 1.72 1.88 2.03 2.24 2.31 2.28 2.27 1.98 1.72 1.69 1.68 1.58 1.54 1.54
0.82 0.87 0.90 0.94 0.98 1.00 1.01 1.01 1.01 1.02 1.03 1.04 1.03 1.02 1.02 1.02 1.00 1.00 1.01 1.02 1.05 1.05 1.00 1.03 1.12 1.17 1.21 1.32 1.46 1.57 1.71 1.90 2.14 2.30 2.24 2.14 1.93 1.72 1.68 1.65 1.57 1.55 1.54
0.80 0.84 0.88 0.91 0.96 0.99 1.03 1.04 1.03 1.04 1.07 1.06 1.05 1.05 1.05 1.02 0.98 0.96 0.96 0.98 1.00 0.98 0.95 0.96 0.99 1.08 1.17 1.29 1.33 1.46 1.61 1.62 1.61 1.68 1.94 2.10 1.94 1.70 1.65 1.71 1.60 1.56 1.54